This is the latest recevied weather packets stored in our database for station/object N7NMS-13. If no packets are shown the sender has not sent any weather packets the latest 10 day(s).
| Time | Temp. | Humidity | Pressure | Rain* | Wind** | Luminosity | Snow |
|---|---|---|---|---|---|---|---|
| 1777999812 | 22.78° C | 41% | - | 0 mm | - | - | - |
| 1777999212 | 22.78° C | 40% | - | 0 mm | - | - | - |
| 1777998612 | 23.33° C | 44% | - | 0 mm | - | - | - |
| 1777998012 | 23.33° C | 43% | - | 0 mm | - | - | - |
| 1777997412 | 22.22° C | 44% | - | 0 mm | - | - | - |
| 1777996812 | 22.22° C | 46% | - | 0 mm | - | - | - |
| 1777996211 | 21.67° C | 45% | - | 0 mm | - | - | - |
| 1777995611 | 22.22° C | 48% | - | 0 mm | - | - | - |
| 1777995011 | 21.67° C | 47% | - | 0 mm | - | - | - |
| 1777994411 | 21.67° C | 46% | - | 0 mm | - | - | - |
| 1777993811 | 21.67° C | 46% | - | 0 mm | - | - | - |
| 1777993211 | 22.22° C | 47% | - | 0 mm | - | - | - |
| 1777992610 | 21.11° C | 45% | - | 0 mm | - | - | - |
| 1777992010 | 21.11° C | 47% | - | 0 mm | - | - | - |
| 1777991410 | 20.56° C | 47% | - | 0 mm | - | - | - |
| 1777990810 | 21.11° C | 48% | - | 0 mm | - | - | - |
| 1777989610 | 21.11° C | 50% | - | 0 mm | - | - | - |
| 1777989010 | 20.56° C | 52% | - | 0 mm | - | - | - |
| 1777988409 | 21.11° C | 54% | - | 0 mm | - | - | - |
| 1777987809 | 20° C | 53% | - | 0 mm | - | - | - |
| 1777987209 | 19.44° C | 56% | - | 0 mm | - | - | - |
| 1777986579 | 18.89° C | 58% | - | 0 mm | - | - | - |
| 1777985979 | 18.33° C | 62% | - | 0 mm | - | - | - |
| 1777985379 | 17.78° C | 65% | - | 0 mm | - | - | - |
| 1777984778 | 17.78° C | 69% | - | 0 mm | - | - | - |
* Rain latest hour (hover to see other rain measurements)
** Current wind speed in m/s (hover to see current wind gust speed)